Weather History for KBTV - November, 2012

Change the Weather History Date:

Tuesday, November 13, 2012

  Actual Average Record
Temperature  
Mean Temperature 47 °F 39 °F  
Max Temperature 65 °F 47 °F 65 °F (1885)
Min Temperature 28 °F 32 °F 15 °F (1986)
Degree Days  
Heating Degree Days 18 26  
Month to date heating degree days 308 309  
Since 1 July heating degree days 821 1050  
Cooling Degree Days 0 0  
Month to date cooling degree days 0 0  
Year to date cooling degree days 747 491  
Moisture  
Dew Point 34 °F    
Average Humidity 67    
Maximum Humidity 93    
Minimum Humidity 40    
Precipitation  
Precipitation 0.75 in 0.10 in 0.95 in (1937)
Month to date precipitation 1.03 1.42  
Year to date precipitation 32.43 32.73  
Snow  
Snow 0.00 in 0.10 in 4.50 in (1977)
Month to date snowfall T 1.3  
Since 1 July snowfall T 1.6  
Since 1 September snowfall T 1.6  
Snow Depth 0.00 in    
Sea Level Pressure  
Sea Level Pressure 30.26 in    
Wind  
Wind Speed 7 mph (WNW)    
Max Wind Speed 24 mph    
Max Gust Speed 33 mph    
Visibility 8 miles    
Events Rain    
T = Trace of Precipitation, MM = Missing Value Source: NWS Daily Summary

Daily Weather History Graph

Daily Weather History Graph

Search for Another Location

Airport or City:

Trip Planner

Search our weather history database for the weather conditions in past years. The results will help you decide how hot, cold, wet, or windy it might be!

Date:

Astronomy

Nov. 13, 2012 Rise Set
Actual Time 6:46 AM EST 4:26 PM EST
Civil Twilight 6:15 AM EST 4:57 PM EST
Nautical Twilight 5:40 AM EST 5:33 PM EST
Astronomical Twilight 5:06 AM EST 6:07 PM EST
Moon 6:21 AM EST (11/13) 4:16 PM EST (11/13)
Length of Visible Light 10h 42m
Length of Day
9h 39m
Waning Crescent, 0% of the Moon is Illuminated
Nov 13
Waning Crescent
Nov 13
New
Nov 20
First Quarter
Nov 28
Full
Dec 6
Last Quarter

Hourly Weather History & Observations

Time (EST) Temp. Windchill Dew Point Humidity Pressure Visibility Wind Dir Wind Speed Gust Speed Precip Events Conditions
12:54 AM 64.9 °F - 51.1 °F 61% 29.97 in 10.0 mi SSW 21.9 mph 32.2 mph N/A   Overcast
1:13 AM 55.4 °F - 48.2 °F 77% 30.02 in 10.0 mi West 17.3 mph 29.9 mph N/A   Overcast
1:18 AM 53.6 °F - 48.2 °F 82% 30.03 in 4.0 mi WNW 17.3 mph 27.6 mph 0.01 in Rain Rain
1:27 AM 53.6 °F - 48.2 °F 82% 30.06 in 2.5 mi WNW 16.1 mph 25.3 mph 0.10 in Rain Heavy Rain
1:30 AM 53.6 °F - 48.2 °F 82% 30.06 in 3.0 mi WNW 17.3 mph 25.3 mph 0.11 in Rain Rain
1:43 AM 51.8 °F - 48.2 °F 88% 30.07 in 5.0 mi WNW 13.8 mph 20.7 mph 0.14 in Rain Light Rain
1:54 AM 51.1 °F - 46.0 °F 83% 30.08 in 6.0 mi WNW 11.5 mph - 0.16 in Rain Light Rain
2:54 AM 48.9 °F - 46.0 °F 90% 30.12 in 5.0 mi ENE 6.9 mph - 0.05 in Rain Light Rain
3:54 AM 48.0 °F - 46.0 °F 93% 30.14 in 6.0 mi ENE 3.5 mph - 0.09 in Rain Light Rain
4:28 AM 48.2 °F - 44.6 °F 87% 30.16 in 9.0 mi North 4.6 mph - 0.04 in Rain Light Rain
4:54 AM 46.9 °F - 44.1 °F 90% 30.17 in 7.0 mi NW 3.5 mph - 0.09 in Rain Light Rain
5:05 AM 46.4 °F 42.9 °F 42.8 °F 87% 30.18 in 10.0 mi WNW 6.9 mph - 0.01 in Rain Light Rain
5:54 AM 44.1 °F 38.6 °F 39.0 °F 82% 30.21 in 4.0 mi WNW 10.4 mph - 0.10 in Rain Heavy Rain
6:10 AM 44.6 °F 39.2 °F 39.2 °F 81% 30.20 in 4.0 mi NW 10.4 mph - 0.07 in Rain Rain
6:54 AM 42.1 °F - 37.9 °F 85% 30.22 in 5.0 mi Calm Calm - 0.13 in Rain Light Rain
7:43 AM 42.8 °F - 37.4 °F 81% 30.23 in 10.0 mi Calm Calm - 0.09 in Rain Light Rain
7:54 AM 42.1 °F - 37.9 °F 85% 30.25 in 10.0 mi Calm Calm - 0.09 in   Overcast
8:16 AM 41.0 °F 35.2 °F 35.6 °F 81% 30.25 in 3.0 mi WNW 9.2 mph 23.0 mph 0.03 in Rain Rain
8:40 AM 42.8 °F 39.3 °F 35.6 °F 76% 30.27 in 10.0 mi West 5.8 mph - 0.04 in   Overcast
8:49 AM 42.8 °F 41.1 °F 35.6 °F 76% 30.27 in 10.0 mi West 3.5 mph - 0.04 in Rain Light Rain
8:54 AM 42.1 °F 37.1 °F 36.0 °F 79% 30.29 in 10.0 mi West 8.1 mph - 0.04 in Rain Light Rain
9:54 AM 43.0 °F 37.7 °F 32.0 °F 65% 30.29 in 10.0 mi WNW 9.2 mph 19.6 mph 0.00 in   Overcast
10:54 AM 42.1 °F 33.6 °F 25.0 °F 51% 30.30 in 10.0 mi WNW 18.4 mph 29.9 mph N/A   Mostly Cloudy
11:54 AM 44.1 °F 38.1 °F 24.1 °F 45% 30.30 in 10.0 mi West 11.5 mph 19.6 mph N/A   Scattered Clouds
12:54 PM 45.0 °F 39.7 °F 24.1 °F 44% 30.30 in 10.0 mi WNW 10.4 mph - N/A   Mostly Cloudy
1:54 PM 44.1 °F 39.0 °F 24.1 °F 45% 30.31 in 10.0 mi WNW 9.2 mph - N/A   Mostly Cloudy
2:54 PM 44.1 °F 37.4 °F 21.9 °F 42% 30.33 in 10.0 mi WNW 13.8 mph - N/A   Mostly Cloudy
3:54 PM 43.0 °F 36.8 °F 21.9 °F 43% 30.35 in 10.0 mi WNW 11.5 mph - N/A   Mostly Cloudy
4:54 PM 42.1 °F 35.2 °F 21.0 °F 43% 30.37 in 10.0 mi WNW 12.7 mph - N/A   Mostly Cloudy
5:54 PM 39.0 °F 34.8 °F 24.1 °F 55% 30.41 in 10.0 mi NNW 5.8 mph - N/A   Mostly Cloudy
6:54 PM 36.0 °F 31.1 °F 25.0 °F 64% 30.43 in 10.0 mi North 5.8 mph - N/A   Clear
7:54 PM 34.0 °F - 24.1 °F 67% 30.46 in 10.0 mi Calm Calm - N/A   Partly Cloudy
8:54 PM 33.1 °F - 25.0 °F 72% 30.47 in 10.0 mi Calm Calm - N/A   Clear
9:54 PM 30.9 °F - 25.0 °F 79% 30.49 in 10.0 mi Calm Calm - N/A   Clear
10:54 PM 30.0 °F - 24.1 °F 79% 30.50 in 10.0 mi Calm Calm - N/A   Clear
11:54 PM 28.9 °F - 24.1 °F 82% 30.51 in 10.0 mi Calm Calm - N/A   Clear